Flag for U.S.A. Weather past 2 weeks in Bradenton, Florida, U.S.A.

Now
86 °F

Scattered clouds.


Feels Like: 94 °F
Forecast: 76 / 84 °F
Wind: 8 mph from Southwest

Location: Sarasota-Bradenton International Airport

Current Time: Aug 31, 2015 at 6:00:52 PM

Latest Report: Aug 31, 2015 at 4:53 PM


Visibility: 10 mi

Pressure: 29.98 "Hg

Humidity: 67%

Dew point: 74 °F

Location of BradentonLocation

Historic Weather in Bradenton — Graph

°F

Bradenton temperature yesterday

Maximum temperature yesterday: 89 °F (at 3:53 PM)
Minimum temperature yesterday: 74 °F (at 12:53 AM)
Average temperature yesterday: 80 °F

Past Weeks' High & Low Weather Summary

 TemperatureHumidityPressure
High96 °F (Aug 25, 10:53 AM)100% (Aug 16, 10:53 PM)30.09 "Hg (Aug 16, 10:53 PM)
Low73 °F (Aug 29, 12:53 AM)49% (Aug 23, 2:53 PM)29.85 "Hg (Aug 24, 7:53 PM)
Average82 °F80%29.97 "Hg
* Reported Aug 16 3:02 PM — Aug 31 3:53 PM, Bradenton, Weather by CustomWeather, © 2015

Note: Actual official high and low records may vary slightly from our data, if they occured in-between our weather recording intervals... More about our weather records

Advertising

Bradenton weather history for previous 24 hours

 ConditionsComfort  
Time TempWeatherWind HumidityBarometerVisibility
3:53 PM
Mon, Aug 31
86 °FSunny.12 mph70%29.99 "Hg10 mi
2:53 PM86 °FSunny.7 mph70%30.00 "Hg10 mi
1:53 PM86 °FScattered clouds.13 mph70%30.00 "Hg10 mi
12:53 PM87 °FPartly sunny.14 mph65%30.02 "Hg10 mi
11:53 AM86 °FBroken clouds.13 mph70%30.03 "Hg10 mi
10:53 AM87 °FScattered clouds.14 mph69%30.02 "Hg10 mi
9:53 AM84 °FSunny.13 mph77%30.01 "Hg10 mi
8:53 AM79 °FSunny.10 mph90%30.00 "Hg10 mi
7:53 AM77 °FClear.9 mph94%29.98 "Hg10 mi
6:53 AM77 °FClear.7 mph94%29.96 "Hg10 mi
5:53 AM77 °FPassing clouds.6 mph94%29.96 "Hg10 mi
4:53 AM77 °FPassing clouds.9 mph94%29.95 "Hg10 mi
3:53 AM77 °FPassing clouds.10 mph94%29.96 "Hg10 mi
2:53 AM77 °FPassing clouds.8 mph94%29.97 "Hg10 mi
1:53 AM77 °FPassing clouds.8 mph94%29.97 "Hg10 mi
12:53 AM77 °FClear.5 mph90%29.98 "Hg10 mi
11:53 PM
Sun, Aug 30
77 °FClear.6 mph94%29.98 "Hg10 mi
10:53 PM78 °FClear.7 mph90%29.99 "Hg10 mi
9:53 PM79 °FPartly cloudy.7 mph88%30.00 "Hg10 mi
8:53 PM80 °FThunderstorms. Mostly cloudy.7 mph81%29.96 "Hg10 mi
7:53 PM84 °FBroken clouds.6 mph72%29.94 "Hg10 mi
6:53 PM85 °FPartly sunny.10 mph72%29.93 "Hg10 mi
6:03 PM87 °FThundershowers. Partly sunny.6 mph67%29.94 "Hg10 mi
Weather by CustomWeather, © 2015

See weather overviewHow to use our weather pages